SHT7T EGLL-EGCC

Flight info

Callsign SHT7T
Flight time 0h 33m
Altitude 16000
Route UMLAT T418 WELIN T420 ELVOS
Aircraft A321/M-SDE3FGHIRWY/LB1

Departure

Time 2026-05-04 15:10
Airport London Heathrow Airport (EGLL)

Arrival

Time 2026-05-04 15:43
Airport Manchester Airport (EGCC)
Time Latitude Longitude Altitude Speed Heading
2026-05-04 14:37 51.46926 -0.48718 89 ft 0 kts 360°
2026-05-04 14:43 51.46913 -0.48717 89 ft 3 kts 360°
2026-05-04 14:44 51.46895 -0.48717 87 ft 3 kts 360°
2026-05-04 14:44 51.46876 -0.48717 87 ft 3 kts 33°
2026-05-04 14:44 51.46865 -0.48735 89 ft 1 kts 86°
2026-05-04 14:44 51.46865 -0.48736 89 ft 0 kts 86°
2026-05-04 14:45 51.46865 -0.48735 89 ft 1 kts 86°
2026-05-04 14:45 51.46867 -0.48695 88 ft 6 kts 87°
2026-05-04 14:45 51.46870 -0.48624 87 ft 6 kts 85°
2026-05-04 14:46 51.46873 -0.48568 87 ft 5 kts 84°
2026-05-04 14:46 51.46879 -0.48518 88 ft 4 kts 71°
2026-05-04 14:46 51.46894 -0.48489 89 ft 3 kts 34°
2026-05-04 14:46 51.46910 -0.48478 88 ft 2 kts 21°
2026-05-04 14:47 51.46922 -0.48475 87 ft 2 kts
2026-05-04 14:47 51.46931 -0.48474 87 ft 1 kts
2026-05-04 14:47 51.46938 -0.48473 88 ft 1 kts
2026-05-04 14:47 51.46944 -0.48472 89 ft 1 kts
2026-05-04 14:48 51.46949 -0.48472 88 ft 1 kts
2026-05-04 14:48 51.46952 -0.48472 88 ft 0 kts
2026-05-04 14:48 51.46955 -0.48472 88 ft 0 kts
2026-05-04 14:48 51.46956 -0.48472 88 ft 0 kts
2026-05-04 14:49 51.46957 -0.48472 88 ft 0 kts
2026-05-04 14:50 51.46963 -0.48472 89 ft 1 kts 360°
2026-05-04 14:51 51.46971 -0.48472 88 ft 2 kts 359°
2026-05-04 14:51 51.46983 -0.48473 88 ft 1 kts 359°
2026-05-04 14:51 51.46986 -0.48473 88 ft 0 kts 359°
2026-05-04 14:51 51.46989 -0.48473 88 ft 1 kts 358°
2026-05-04 14:52 51.47000 -0.48473 87 ft 3 kts 358°
2026-05-04 14:52 51.47023 -0.48472 87 ft 3 kts
2026-05-04 14:52 51.47038 -0.48460 89 ft 2 kts 35°
2026-05-04 14:52 51.47046 -0.48430 90 ft 4 kts 73°
2026-05-04 14:53 51.47057 -0.48388 90 ft 4 kts 57°
2026-05-04 14:53 51.47077 -0.48366 88 ft 4 kts 25°
2026-05-04 14:53 51.47105 -0.48359 88 ft 4 kts
2026-05-04 14:53 51.47137 -0.48359 87 ft 5 kts
2026-05-04 14:54 51.47178 -0.48359 87 ft 6 kts 359°
2026-05-04 14:54 51.47223 -0.48360 87 ft 7 kts 360°
2026-05-04 14:54 51.47274 -0.48360 87 ft 6 kts 359°
2026-05-04 14:54 51.47310 -0.48362 87 ft 4 kts 358°
2026-05-04 14:55 51.47335 -0.48363 87 ft 4 kts 359°
2026-05-04 14:55 51.47368 -0.48363 87 ft 6 kts
2026-05-04 14:55 51.47410 -0.48362 87 ft 7 kts
2026-05-04 14:55 51.47463 -0.48361 87 ft 8 kts
2026-05-04 14:56 51.47521 -0.48359 87 ft 8 kts
2026-05-04 14:56 51.47563 -0.48330 89 ft 5 kts 40°
2026-05-04 14:56 51.47577 -0.48276 89 ft 6 kts 81°
2026-05-04 14:56 51.47579 -0.48207 90 ft 7 kts 89°
2026-05-04 14:57 51.47579 -0.48121 89 ft 9 kts 90°
2026-05-04 14:57 51.47578 -0.48017 91 ft 10 kts 91°
2026-05-04 14:57 51.47578 -0.47900 90 ft 11 kts 90°
2026-05-04 14:57 51.47579 -0.47773 90 ft 10 kts 89°
2026-05-04 14:58 51.47579 -0.47670 90 ft 8 kts 90°
2026-05-04 14:58 51.47579 -0.47587 90 ft 7 kts 90°
2026-05-04 14:58 51.47579 -0.47521 90 ft 5 kts 89°
2026-05-04 14:58 51.47580 -0.47466 90 ft 5 kts 89°
2026-05-04 14:59 51.47580 -0.47390 90 ft 9 kts 89°
2026-05-04 14:59 51.47581 -0.47268 89 ft 13 kts 89°
2026-05-04 14:59 51.47582 -0.46935 91 ft 11 kts 90°
2026-05-04 15:00 51.47590 -0.46807 87 ft 12 kts 84°
2026-05-04 15:00 51.47593 -0.46665 87 ft 13 kts 90°
2026-05-04 15:00 51.47593 -0.46510 87 ft 15 kts 90°
2026-05-04 15:01 51.47594 -0.46175 90 ft 15 kts 90°
2026-05-04 15:01 51.47595 -0.46025 90 ft 15 kts 90°
2026-05-04 15:01 51.47595 -0.45853 90 ft 16 kts 90°
2026-05-04 15:01 51.47595 -0.45792 90 ft 16 kts 90°
2026-05-04 15:02 51.47596 -0.45603 90 ft 17 kts 89°
2026-05-04 15:02 51.47596 -0.45412 87 ft 18 kts 89°
2026-05-04 15:02 51.47596 -0.45237 87 ft 16 kts 89°
2026-05-04 15:03 51.47597 -0.45054 87 ft 17 kts 89°
2026-05-04 15:03 51.47599 -0.44867 89 ft 18 kts 89°
2026-05-04 15:03 51.47600 -0.44667 87 ft 18 kts 89°
2026-05-04 15:03 51.47601 -0.44463 87 ft 13 kts 91°
2026-05-04 15:04 51.47597 -0.44308 87 ft 14 kts 97°
2026-05-04 15:04 51.47591 -0.44141 87 ft 16 kts 90°
2026-05-04 15:04 51.47592 -0.43963 87 ft 16 kts 89°
2026-05-04 15:04 51.47592 -0.43805 87 ft 12 kts 90°
2026-05-04 15:05 51.47593 -0.43671 87 ft 10 kts 89°
2026-05-04 15:05 51.47599 -0.43578 89 ft 9 kts 70°
2026-05-04 15:05 51.47638 -0.43496 89 ft 10 kts 50°
2026-05-04 15:05 51.47691 -0.43428 90 ft 10 kts 14°
2026-05-04 15:06 51.47749 -0.43431 89 ft 5 kts 347°
2026-05-04 15:06 51.47767 -0.43484 89 ft 6 kts 274°
2026-05-04 15:06 51.47767 -0.43494 91 ft 0 kts 268°
2026-05-04 15:09 51.47767 -0.43501 87 ft 3 kts 268°
2026-05-04 15:09 51.47765 -0.44122 86 ft 91 kts 271°
2026-05-04 15:10 51.47755 -0.46759 126 ft 180 kts 270°
2026-05-04 15:10 51.47728 -0.48823 680 ft 189 kts 271°
2026-05-04 15:10 51.47691 -0.53295 1944 ft 213 kts 272°
2026-05-04 15:11 51.48044 -0.55695 2286 ft 234 kts 297°
2026-05-04 15:11 51.48822 -0.58150 2638 ft 254 kts 299°
2026-05-04 15:11 51.49637 -0.60681 3319 ft 261 kts 298°
2026-05-04 15:11 51.50475 -0.63283 4121 ft 264 kts 298°
2026-05-04 15:12 51.51335 -0.65915 4932 ft 267 kts 301°
2026-05-04 15:12 51.52651 -0.67990 5605 ft 272 kts 333°
2026-05-04 15:12 51.54474 -0.68625 6295 ft 276 kts 358°
2026-05-04 15:12 51.56409 -0.68672 7019 ft 279 kts 359°
2026-05-04 15:13 51.58389 -0.68711 7697 ft 284 kts 357°
2026-05-04 15:13 51.60360 -0.68794 8400 ft 289 kts 356°
2026-05-04 15:13 51.61494 -0.68864 8856 ft 290 kts 355°
2026-05-04 15:14 51.62174 -0.68878 9186 ft 287 kts 360°
2026-05-04 15:14 51.64210 -0.68910 9888 ft 294 kts 355°
2026-05-04 15:14 51.66276 -0.69114 10271 ft 308 kts 354°
2026-05-04 15:15 51.68491 -0.69409 10397 ft 330 kts 353°
2026-05-04 15:15 51.70836 -0.69742 10623 ft 346 kts 353°
2026-05-04 15:15 51.73268 -0.70074 11159 ft 351 kts 354°
2026-05-04 15:16 51.78196 -0.70673 12385 ft 358 kts 355°
2026-05-04 15:16 51.80711 -0.70952 13026 ft 361 kts 354°
2026-05-04 15:16 51.85760 -0.71505 14144 ft 369 kts 354°
2026-05-04 15:17 51.88337 -0.71792 14662 ft 373 kts 354°
2026-05-04 15:17 51.93551 -0.72388 15658 ft 380 kts 355°
2026-05-04 15:17 51.96203 -0.72695 15976 ft 383 kts 355°
2026-05-04 15:18 51.98878 -0.73002 16038 ft 387 kts 354°
2026-05-04 15:18 52.01546 -0.73407 16047 ft 387 kts 349°
2026-05-04 15:18 52.04155 -0.74469 16057 ft 386 kts 340°
2026-05-04 15:19 52.09282 -0.77145 16054 ft 386 kts 340°
2026-05-04 15:19 52.11801 -0.78461 16054 ft 386 kts 341°
2026-05-04 15:19 52.16894 -0.81119 16058 ft 386 kts 340°
2026-05-04 15:20 52.19420 -0.82442 16052 ft 386 kts 341°
2026-05-04 15:20 52.21974 -0.83779 16053 ft 385 kts 340°
2026-05-04 15:20 52.24524 -0.85255 16053 ft 384 kts 334°
2026-05-04 15:20 52.26812 -0.87280 16047 ft 383 kts 326°
2026-05-04 15:21 52.29082 -0.89555 16053 ft 383 kts 327°
2026-05-04 15:21 52.31382 -0.91854 16075 ft 383 kts 327°
2026-05-04 15:21 52.35846 -0.96295 16076 ft 382 kts 327°
2026-05-04 15:22 52.38015 -0.98450 16074 ft 382 kts 327°
2026-05-04 15:22 52.40314 -1.00744 16067 ft 382 kts 327°
2026-05-04 15:22 52.44858 -1.05295 16064 ft 381 kts 327°
2026-05-04 15:23 52.47084 -1.07529 16053 ft 381 kts 327°
2026-05-04 15:23 52.49349 -1.09802 16053 ft 382 kts 327°
2026-05-04 15:23 52.51612 -1.12071 16065 ft 382 kts 327°
2026-05-04 15:23 52.53875 -1.14346 16069 ft 381 kts 327°
2026-05-04 15:24 52.58397 -1.18905 16046 ft 381 kts 327°
2026-05-04 15:24 52.62892 -1.23445 16041 ft 380 kts 327°
2026-05-04 15:25 52.64911 -1.25491 16044 ft 380 kts 327°
2026-05-04 15:25 52.67147 -1.27765 16044 ft 380 kts 327°
2026-05-04 15:25 52.69386 -1.30038 16060 ft 380 kts 327°
2026-05-04 15:26 52.73902 -1.34625 16086 ft 380 kts 327°
2026-05-04 15:26 52.76132 -1.36895 16059 ft 369 kts 327°
2026-05-04 15:26 52.80354 -1.41205 16058 ft 354 kts 327°
2026-05-04 15:27 52.82451 -1.43359 16058 ft 354 kts 327°
2026-05-04 15:27 52.86617 -1.47634 16057 ft 353 kts 327°
2026-05-04 15:28 52.90582 -1.51699 16054 ft 318 kts 327°
2026-05-04 15:28 52.92462 -1.53632 15709 ft 315 kts 327°
2026-05-04 15:28 52.96032 -1.57306 14931 ft 310 kts 327°
2026-05-04 15:29 52.97886 -1.59217 14527 ft 308 kts 327°
2026-05-04 15:30 53.04981 -1.66685 12956 ft 298 kts 320°
2026-05-04 15:30 53.09039 -1.74057 11983 ft 282 kts 309°
2026-05-04 15:31 53.11574 -1.78977 11282 ft 278 kts 310°
2026-05-04 15:31 53.12824 -1.81398 10927 ft 276 kts 310°
2026-05-04 15:32 53.16441 -1.88420 9902 ft 272 kts 310°
2026-05-04 15:32 53.18856 -1.93133 9177 ft 269 kts 309°
2026-05-04 15:33 53.21259 -1.97820 8451 ft 266 kts 309°
2026-05-04 15:34 53.25728 -2.02583 7391 ft 264 kts 354°
2026-05-04 15:34 53.27504 -2.02512 7052 ft 264 kts
2026-05-04 15:34 53.31160 -2.02058 6382 ft 262 kts
2026-05-04 15:35 53.34393 -2.00466 5718 ft 260 kts 36°
2026-05-04 15:35 53.35790 -1.98562 5355 ft 259 kts 40°
2026-05-04 15:35 53.37154 -1.96588 5016 ft 258 kts 40°
2026-05-04 15:36 53.39838 -1.92672 4376 ft 254 kts 40°
2026-05-04 15:36 53.41172 -1.90722 4112 ft 249 kts 40°
2026-05-04 15:36 53.42511 -1.89035 3859 ft 242 kts 23°
2026-05-04 15:37 53.44115 -1.88570 3639 ft 231 kts 352°
2026-05-04 15:37 53.45523 -1.89576 3519 ft 216 kts 321°
2026-05-04 15:37 53.46612 -1.91177 3506 ft 198 kts 316°
2026-05-04 15:37 53.47590 -1.92736 3516 ft 190 kts 315°
2026-05-04 15:38 53.48539 -1.94262 3533 ft 188 kts 315°
2026-05-04 15:38 53.49465 -1.95793 3523 ft 186 kts 310°
2026-05-04 15:38 53.49870 -1.97778 3522 ft 186 kts 263°
2026-05-04 15:38 53.49219 -1.99591 3524 ft 187 kts 217°
2026-05-04 15:39 53.48156 -2.00808 3514 ft 187 kts 225°
2026-05-04 15:39 53.47344 -2.02526 3524 ft 187 kts 233°
2026-05-04 15:39 53.45731 -2.05943 3320 ft 186 kts 232°
2026-05-04 15:40 53.44919 -2.07642 3085 ft 187 kts 232°
2026-05-04 15:40 53.44113 -2.09324 2837 ft 185 kts 232°
2026-05-04 15:40 53.43342 -2.10931 2586 ft 179 kts 232°
2026-05-04 15:40 53.42548 -2.12587 2336 ft 174 kts 232°
2026-05-04 15:41 53.41801 -2.14143 2117 ft 166 kts 231°
2026-05-04 15:41 53.41086 -2.15631 1887 ft 165 kts 231°
2026-05-04 15:41 53.40366 -2.17130 1670 ft 163 kts 232°
2026-05-04 15:41 53.39667 -2.18584 1426 ft 157 kts 231°
2026-05-04 15:42 53.39001 -2.19968 1214 ft 150 kts 231°
2026-05-04 15:42 53.38348 -2.21325 1007 ft 145 kts 231°
2026-05-04 15:42 53.37727 -2.22612 798 ft 143 kts 231°
2026-05-04 15:42 53.37104 -2.23897 598 ft 142 kts 231°
2026-05-04 15:43 53.36495 -2.25171 412 ft 141 kts 231°
2026-05-04 15:43 53.35886 -2.26441 264 ft 140 kts 231°
2026-05-04 15:43 53.35338 -2.27564 237 ft 101 kts 231°
2026-05-04 15:43 53.35105 -2.28056 231 ft 18 kts 231°
2026-05-04 15:44 53.35031 -2.28214 233 ft 17 kts 236°
2026-05-04 15:44 53.34975 -2.28396 235 ft 17 kts 248°
2026-05-04 15:44 53.34949 -2.28564 236 ft 11 kts 259°
2026-05-04 15:44 53.34941 -2.28674 233 ft 9 kts 276°
2026-05-04 15:45 53.34985 -2.28746 233 ft 10 kts 354°
2026-05-04 15:45 53.35045 -2.28683 233 ft 11 kts 47°
2026-05-04 15:45 53.35100 -2.28575 233 ft 13 kts 52°
2026-05-04 15:45 53.35157 -2.28452 233 ft 14 kts 52°
2026-05-04 15:46 53.35215 -2.28329 233 ft 6 kts 49°
2026-05-04 15:46 53.35239 -2.28285 233 ft 6 kts 47°
2026-05-04 15:46 53.35270 -2.28229 233 ft 7 kts 47°
2026-05-04 15:46 53.35309 -2.28160 233 ft 9 kts 46°
2026-05-04 15:47 53.35355 -2.28082 233 ft 10 kts 45°
2026-05-04 15:47 53.35409 -2.27994 233 ft 11 kts 44°
2026-05-04 15:47 53.35471 -2.27927 233 ft 10 kts 16°
2026-05-04 15:47 53.35530 -2.27911 233 ft 8 kts
2026-05-04 15:48 53.35576 -2.27904 233 ft 7 kts
2026-05-04 15:48 53.35627 -2.27897 233 ft 8 kts
2026-05-04 15:48 53.35744 -2.27880 235 ft 9 kts
2026-05-04 15:49 53.35811 -2.27867 233 ft 10 kts
2026-05-04 15:49 53.35882 -2.27852 233 ft 11 kts
2026-05-04 15:49 53.35955 -2.27859 233 ft 11 kts 341°
2026-05-04 15:49 53.36018 -2.27943 233 ft 12 kts 314°
2026-05-04 15:50 53.36078 -2.28046 233 ft 13 kts 314°
2026-05-04 15:50 53.36140 -2.28154 233 ft 13 kts 314°
2026-05-04 15:50 53.36207 -2.28267 233 ft 14 kts 314°
2026-05-04 15:50 53.36274 -2.28388 233 ft 15 kts 313°
2026-05-04 15:51 53.36348 -2.28493 233 ft 12 kts 340°
2026-05-04 15:51 53.36424 -2.28500 235 ft 10 kts 342°
2026-05-04 15:51 53.36471 -2.28562 233 ft 8 kts 315°
2026-05-04 15:51 53.36504 -2.28618 233 ft 6 kts 314°
2026-05-04 15:52 53.36536 -2.28674 233 ft 10 kts 313°
2026-05-04 15:52 53.36581 -2.28773 233 ft 10 kts 297°
2026-05-04 15:52 53.36613 -2.28864 233 ft 8 kts 308°
2026-05-04 15:52 53.36647 -2.28924 233 ft 6 kts 314°
2026-05-04 15:53 53.36671 -2.28965 233 ft 4 kts 315°
2026-05-04 15:53 53.36691 -2.28999 233 ft 5 kts 316°
2026-05-04 15:53 53.36718 -2.29042 233 ft 6 kts 316°
2026-05-04 15:53 53.36754 -2.29077 233 ft 6 kts 350°
2026-05-04 15:54 53.36795 -2.29061 233 ft 6 kts 18°
2026-05-04 15:54 53.36838 -2.29031 233 ft 7 kts 27°
2026-05-04 15:54 53.36870 -2.28988 233 ft 5 kts 54°
2026-05-04 15:54 53.36872 -2.28953 233 ft 2 kts 103°
2026-05-04 15:55 53.36866 -2.28935 233 ft 2 kts 122°
2026-05-04 15:55 53.36858 -2.28921 234 ft 1 kts 133°
2026-05-04 15:55 53.36856 -2.28918 234 ft 2 kts 133°
2026-05-04 15:55 53.36846 -2.28900 233 ft 1 kts 133°
2026-05-04 15:56 53.36839 -2.28887 233 ft 1 kts 134°